This demonstration page uses our WeatherBlox Daily Observations layout. Learn more.

Left ArrowRight Arrow

38.88101, -77.10428

Hourly Observations for November 21, 2018

Temp ( °F °C ) Dew Point ( °F °C ) Humidity (%) Winds ( mph kmh ) Pressure ( in mb ) Visibility ( mi km ) Precip ( " mm )
12:52 am 00:52 Mostly Clear 41 5 26 -3.3 55 55 WNW 6 9 30.16 1022 10 16.0934 0 0
1:52 am 01:52 Clear 41 5 25 -3.9 53 53 W 3 6 30.17 1022 10 16.0934 0 0
2:52 am 02:52 Mostly Clear 38 3.3 24 -4.4 57 57 W 3 6 30.16 1021 10 16.0934 0 0
3:52 am 03:52 Clear 37 2.8 26 -3.3 65 65 Calm 30.15 1021 10 16.0934 0 0
4:52 am 04:52 Clear 36 2.2 28 -2.2 73 73 SSW 3 6 30.15 1021 10 16.0934 0 0
5:52 am 05:52 Clear 34 1.1 26 -3.3 73 73 SSW 9 15 30.16 1021 10 16.0934 0 0
6:52 am 06:52 Clear 35 1.7 27 -2.8 72 72 SW 6 9 30.16 1021 10 16.0934 0 0
7:52 am 07:52 Sunny 36 2.2 30 -1.1 79 79 SSW 6 9 30.18 1022 10 16.0934 0 0
8:52 am 08:52 Sunny 41 5 32 0 70 70 SSW 8 13 30.19 1022 10 16.0934 0 0
9:52 am 09:52 Sunny 44 6.7 30 -1.1 58 58 SSW 9 15 30.18 1022 10 16.0934 0 0
10:52 am 10:52 Mostly Sunny 47 8.3 31 -0.6 54 54 S 10 17 30.16 1021 10 16.0934 0 0
11:52 am 11:52 Mostly Sunny 50 10 30 -1.1 46 46 SSW 9 15 30.14 1021 10 16.0934 0 0
12:52 pm 12:52 Mostly Sunny 52 11.1 25 -3.9 35 35 SW 9 15 30.11 1020 10 16.0934 0 0
1:52 pm 13:52 Mostly Sunny 53 11.7 26 -3.3 35 35 WSW 12 19 30.1 1019 10 16.0934 0 0
2:52 pm 14:52 Mostly Sunny 55 12.8 27 -2.8 34 34 W 7 11 30.09 1019 10 16.0934 0 0
3:52 pm 15:52 Partly Cloudy 54 12.2 27 -2.8 35 35 NNW 12 19 30.11 1020 10 16.0934 0 0
4:52 pm 16:52 Mostly Clear 49 9.4 28 -2.2 44 44 NW 20 31 30.14 1021 10 16.0934 0 0
5:52 pm 17:52 Mostly Clear 46 7.8 28 -2.2 50 50 NW 15 24 30.18 1022 10 16.0934 0 0
6:52 pm 18:52 Mostly Clear 44 6.7 27 -2.8 51 51 NW 14 22 30.22 1023 10 16.0934 0 0
7:52 pm 19:52 Mostly Cloudy 44 6.7 27 -2.8 51 51 NNW 15 24 30.24 1024 10 16.0934 0 0
8:52 pm 20:52 Cloudy 43 6.1 27 -2.8 53 53 NNW 14 22 30.24 1024 10 16.0934 0 0
9:52 pm 21:52 Mostly Cloudy 42 5.6 23 -5 47 47 NW 13 20 30.25 1025 10 16.0934 0 0
10:52 pm 22:52 Mostly Cloudy 42 5.6 23 -5 47 47 NW 10 17 30.27 1025 10 16.0934 0 0
11:52 pm 23:52 Mostly Cloudy 42 5.6 23 -5 47 47 NW 14 22 30.27 1025 10 16.0934 0 0

Powered by AerisWeather